This is the latest recevied weather packets stored in our database for station/object F5OZP-13. If no packets are shown the sender has not sent any weather packets the latest 10 day(s).
| Time | Temp. | Humidity | Pressure | Rain* | Wind** | Luminosity | Snow |
|---|---|---|---|---|---|---|---|
| 1778158848 | 24.44° C | 15% | 1013 hPa | - | - | 61 W/m² | - |
| 1778158540 | 23.33° C | 47% | 1013.1 hPa | - | - | 63 W/m² | - |
| 1778158240 | 23.33° C | 31% | 1013.1 hPa | - | - | 57 W/m² | - |
| 1778157924 | 23.33° C | 51% | 1013.2 hPa | - | - | 66 W/m² | - |
| 1778157616 | 24.44° C | 77% | 1013.2 hPa | - | - | 69 W/m² | - |
| 1778157000 | 24.44° C | 83% | 1013.3 hPa | - | - | 69 W/m² | - |
| 1778156691 | 23.89° C | 95% | 1013.4 hPa | - | - | 61 W/m² | - |
| 1778156391 | 23.89° C | 99% | 1013.5 hPa | - | - | 73 W/m² | - |
| 1778156075 | 23.89° C | 99% | 1013.5 hPa | - | - | 69 W/m² | - |
| 1778155778 | 24.44° C | 99% | 1013.6 hPa | - | - | 73 W/m² | - |
| 1778155464 | 23.89° C | 99% | 1013.6 hPa | - | - | 50 W/m² | - |
| 1778155155 | 23.89° C | 99% | 1013.6 hPa | - | - | 48 W/m² | - |
| 1778154547 | 22.78° C | 99% | 1013.8 hPa | - | - | 50 W/m² | - |
| 1778154231 | 22.78° C | 99% | 1013.9 hPa | - | - | 47 W/m² | - |
| 1778153923 | 22.22° C | 99% | 1013.9 hPa | - | - | 47 W/m² | - |
| 1778153923 | 22.22° C | 99% | 1013.9 hPa | - | - | 47 W/m² | - |
| 1778153615 | 22.22° C | 99% | 1013.9 hPa | - | - | 49 W/m² | - |
| 1778153307 | 22.78° C | 99% | 1014 hPa | - | - | 49 W/m² | - |
| 1778152999 | 21.67° C | 99% | 1014 hPa | - | - | 48 W/m² | - |
| 1778152698 | 22.22° C | 99% | 1014.1 hPa | - | - | 48 W/m² | - |
| 1778152382 | 20.56° C | 99% | 1014.2 hPa | - | - | 50 W/m² | - |
| 1778152079 | 22.22° C | 99% | 1014.4 hPa | - | - | 48 W/m² | - |
| 1778151770 | 22.22° C | 99% | 1014.3 hPa | - | - | 49 W/m² | - |
| 1778151463 | 22.22° C | 99% | 1014.4 hPa | - | - | 46 W/m² | - |
| 1778151154 | 21.67° C | 99% | 1014.5 hPa | - | - | 45 W/m² | - |
* Rain since midnight (hover to see other rain measurements)
** Current wind speed in m/s (hover to see current wind gust speed)